Regional Weather Roundup
Issued by NWS Cleveland, OH

Home | Current Version | Previous Version | Graphics & Text | Print | Product List | Glossary On
Versions: 1 2 3 4 5 6 7 8 9 10 11 12 13 14 15 16 17 18 19 20 21 22 23 24 25 26 27 28 29 30 31 32 33 34 35 36 37 38 39 40 41 42 43 44 45 46 47 48 49 50
000
ASUS41 KCLE 080110
RWRCLE
OHIO REGIONAL WEATHER ROUNDUP
NATIONAL WEATHER SERVICE CLEVELAND, OH
800 PM EST SUN FEB 07 2016

NOTE: "FAIR" INDICATES FEW OR NO CLOUDS BELOW 12,000 FEET WITH NO
SIGNIFICANT WEATHER AND/OR OBSTRUCTIONS TO VISIBILITY.

OHZ001>008-015>018-024>027-034-035-043-044-080200-
   NORTHWEST OHIO

CITY           SKY/WX    TMP DP  RH WIND       PRES   REMARKS
DEFIANCE       CLOUDY    45  32  60 S7        29.78S
FINDLAY        CLOUDY    44  29  55 S12       29.79F
TOLEDO EXPRESS CLOUDY    46  29  51 S12G20    29.77F
TOLEDO EXEC    CLOUDY    44  30  57 S10       29.79F
LIMA           CLOUDY    44  28  53 S9        29.79F
$$

OHZ009>014-019>023-028>033-038-089-080200-
   NORTHEAST OHIO

CITY           SKY/WX    TMP DP  RH WIND       PRES   REMARKS
CLE-HOPKINS    CLOUDY    47  26  44 S10       29.86F
CLE-LAKEFRONT  CLOUDY    49  26  41 S10       29.83F
CUY CO. ARPT   MOCLDY    39  28  65 S14       29.85F
LORAIN-ELYRIA  CLOUDY    45  25  45 S9        29.83F
ASHTABULA      PTCLDY    43  27  53 S6        29.86F
AKRON-CANTON   CLOUDY    42  24  49 SW7       29.86S
WOOSTER        CLOUDY    42  26  53 SW7       29.85F
MANSFIELD      CLOUDY    44  24  45 S12       29.83F
YOUNGSTOWN     CLOUDY    45  24  43 S5        29.86F
$$

OHZ042-051>053-060>062-070>072-077>081-080200-
  SOUTHWEST OHIO

CITY           SKY/WX    TMP DP  RH WIND       PRES   REMARKS
CINC-COVINGTON MOCLDY    47  21  35 S8        29.85F
CINC-LUNKEN    PTCLDY    43  24  47 SW8       29.87F
HAMILTON       MOCLDY    49  22  34 S6        29.86F
DAYTON         CLOUDY    46  23  40 S9        29.84F
WRIGHT-PAT AFB CLOUDY    46  20  36 S8        29.83F
DAYTON GENERAL CLOUDY    44  22  41 S8        29.83F
WILMINGTON     PTCLDY    38  25  59 S8        29.85F
$$

OHZ036-037-039>041-045>050-054>059-063>069-073>076-082>088-080200-
  CENTRAL AND SOUTHEAST OHIO

CITY           SKY/WX    TMP DP  RH WIND       PRES   REMARKS
COLUMBUS       MOCLDY    44  20  38 S6        29.86F
OSU AIRPORT    PTCLDY    44  22  41 S8        29.85F
BOLTON FIELD   PTCLDY    41  25  52 S8        29.86F
RICKENBACK AFB CLEAR     41  23  48 S6        29.86F
NEWARK         PTCLDY    45  24  43 SW5       29.86F
MARION         CLOUDY    44  25  47 S12       29.83F
LANCASTER      PTCLDY    39  24  55 S3        29.87F
ZANESVILLE     PTCLDY    47  21  35 SW5       29.87F
NEW PHILLY     CLOUDY    40  27  59 CALM      29.87F
$$



USA.gov is the U.S. government's official web portal to all federal, state and local government web resources and services.